When you browse on this site, cookies collect data to enhance your experience and personalize the content and advertising you see.
Visit our Privacy Policy to learn more. By continuing to use the site, you agree to this use of cookies and data.
  • en France
  • Liste des pays
  • À 7 jours
  • Température de l'eau
  • Carte météo
  • Widgets météo
  • user-avatar
    Se connecter

    Météo par heure à Caen

    Ce jour, 14 Novembre, Jeudi

    Heure Température Précipitation Vent Pression Humidité
    00:00 +5°C° 0.6 mm 4 m/s 742 mmHg 90%
    01:00 +4°C° 0.1 mm 4 m/s 742 mmHg 91%
    02:00 +2°C° 0.1 mm 5 m/s 741 mmHg 92%
    03:00 +1°C° 0.1 mm 5 m/s 741 mmHg 93%
    04:00 +1°C° 0.1 mm 5 m/s 742 mmHg 92%
    05:00 +2°C° 0.1 mm 5 m/s 742 mmHg 91%
    06:00 +2°C° 0.1 mm 5 m/s 743 mmHg 90%
    07:00 +2°C° 0.1 mm 5 m/s 743 mmHg 89%
    08:00 +3°C° 0.1 mm 5 m/s 744 mmHg 88%
    09:00 +3°C° 0.1 mm 5 m/s 744 mmHg 87%
    10:00 +5°C° 0.3 mm 5 m/s 745 mmHg 86%
    11:00 +6°C° 0.3 mm 5 m/s 745 mmHg 84%
    12:00 +7°C° 0.3 mm 5 m/s 745 mmHg 82%
    13:00 +7°C° 0.2 mm 5 m/s 745 mmHg 82%
    14:00 +7°C° 0.2 mm 4 m/s 745 mmHg 81%
    15:00 +7°C° 0.2 mm 4 m/s 745 mmHg 81%
    16:00 +7°C° 0.1 mm 3 m/s 746 mmHg 83%
    17:00 +5°C° 0.1 mm 3 m/s 746 mmHg 86%
    18:00 +4°C° 0.1 mm 2 m/s 747 mmHg 89%
    19:00 +4°C° 0.1 mm 2 m/s 747 mmHg 88%
    20:00 +4°C° 0.1 mm 2 m/s 748 mmHg 88%
    21:00 +4°C° 0.1 mm 1 m/s 748 mmHg 88%
    22:00 +4°C° 0 mm 1 m/s 748 mmHg 88%
    23:00 +4°C° 0 mm 1 m/s 749 mmHg 88%

    Demain, 15 Novembre, Vendredi

    Heure Température Précipitation Vent Pression Humidité
    00:00 +4°C° 0 mm 1 m/s 749 mmHg 88%
    01:00 +4°C° 0 mm 1 m/s 749 mmHg 89%
    02:00 +4°C° 0 mm 1 m/s 749 mmHg 89%
    03:00 +3°C° 0 mm 1 m/s 749 mmHg 89%
    04:00 +4°C° 0 mm 1 m/s 749 mmHg 89%
    05:00 +4°C° 0 mm 1 m/s 749 mmHg 89%
    06:00 +3°C° 0 mm 2 m/s 749 mmHg 89%
    07:00 +3°C° 0.5 mm 3 m/s 750 mmHg 89%
    08:00 +4°C° 0.5 mm 4 m/s 750 mmHg 89%
    09:00 +5°C° 0.5 mm 5 m/s 750 mmHg 89%
    10:00 +6°C° 1.5 mm 5 m/s 750 mmHg 89%
    11:00 +6°C° 1.5 mm 5 m/s 750 mmHg 89%
    12:00 +5°C° 1.5 mm 6 m/s 750 mmHg 88%
    13:00 +6°C° 1.4 mm 5 m/s 750 mmHg 90%
    14:00 +5°C° 1.4 mm 5 m/s 749 mmHg 91%
    15:00 +5°C° 1.4 mm 5 m/s 749 mmHg 92%
    16:00 +4°C° 1.3 mm 4 m/s 749 mmHg 93%
    17:00 +4°C° 1.3 mm 4 m/s 749 mmHg 94%
    18:00 +4°C° 1.3 mm 3 m/s 749 mmHg 95%
    19:00 +3°C° 0.3 mm 3 m/s 750 mmHg 94%
    20:00 +3°C° 0.3 mm 3 m/s 750 mmHg 93%
    21:00 +3°C° 0.3 mm 3 m/s 750 mmHg 93%
    22:00 +4°C° 0.1 mm 2 m/s 750 mmHg 93%
    23:00 +4°C° 0.1 mm 2 m/s 751 mmHg 93%

    Après-demain, 16 Novembre, Samedi

    Heure Température Précipitation Vent Pression Humidité
    00:00 +4°C° 0.1 mm 2 m/s 751 mmHg 93%
    01:00 +4°C° 0 mm 2 m/s 751 mmHg 93%
    02:00 +3°C° 0 mm 2 m/s 751 mmHg 93%
    03:00 +3°C° 0 mm 2 m/s 752 mmHg 93%
    04:00 +3°C° 0 mm 2 m/s 752 mmHg 93%
    05:00 +3°C° 0 mm 1 m/s 752 mmHg 92%
    06:00 +3°C° 0 mm 1 m/s 753 mmHg 91%
    07:00 +3°C° 0 mm 1 m/s 754 mmHg 91%
    08:00 +3°C° 0 mm 2 m/s 754 mmHg 90%
    09:00 +4°C° 0 mm 2 m/s 755 mmHg 90%
    10:00 +5°C° 0 mm 2 m/s 755 mmHg 86%
    11:00 +7°C° 0 mm 1 m/s 756 mmHg 82%
    12:00 +8°C° 0 mm 1 m/s 756 mmHg 78%
    13:00 +8°C° 0 mm 1 m/s 756 mmHg 79%
    14:00 +9°C° 0 mm 1 m/s 756 mmHg 81%
    15:00 +9°C° 0 mm 1 m/s 756 mmHg 82%
    16:00 +8°C° 0 mm 1 m/s 756 mmHg 84%
    17:00 +5°C° 0 mm 2 m/s 756 mmHg 87%
    18:00 +4°C° 0 mm 2 m/s 757 mmHg 89%
    19:00 +5°C° 0 mm 2 m/s 757 mmHg 89%
    20:00 +4°C° 0 mm 3 m/s 757 mmHg 88%
    21:00 +4°C° 0 mm 3 m/s 757 mmHg 88%
    22:00 +4°C° 0 mm 3 m/s 757 mmHg 88%
    23:00 +4°C° 0 mm 3 m/s 757 mmHg 87%

    17 Novembre, Dimanche

    Heure Température Précipitation Vent Pression Humidité
    00:00 +4°C° 0 mm 3 m/s 757 mmHg 87%
    01:00 +4°C° 0.1 mm 3 m/s 757 mmHg 88%
    02:00 +3°C° 0.1 mm 3 m/s 757 mmHg 88%
    03:00 +4°C° 0.1 mm 2 m/s 757 mmHg 89%
    04:00 +4°C° 0.1 mm 2 m/s 757 mmHg 89%
    05:00 +4°C° 0.1 mm 2 m/s 757 mmHg 90%
    06:00 +4°C° 0.1 mm 2 m/s 757 mmHg 91%
    07:00 +4°C° 0 mm 2 m/s 757 mmHg 90%
    08:00 +5°C° 0 mm 2 m/s 757 mmHg 89%
    09:00 +5°C° 0 mm 2 m/s 757 mmHg 88%
    10:00 +7°C° 0 mm 1 m/s 757 mmHg 86%
    11:00 +8°C° 0 mm 1 m/s 757 mmHg 84%
    12:00 +9°C° 0 mm 1 m/s 757 mmHg 81%
    13:00 +9°C° 0.1 mm 1 m/s 757 mmHg 84%
    14:00 +9°C° 0.1 mm 1 m/s 757 mmHg 86%
    15:00 +9°C° 0.1 mm 1 m/s 757 mmHg 89%
    16:00 +8°C° 0.6 mm 2 m/s 757 mmHg 90%
    17:00 +7°C° 0.6 mm 2 m/s 757 mmHg 92%
    18:00 +7°C° 0.6 mm 2 m/s 757 mmHg 93%
    19:00 +7°C° 0.2 mm 3 m/s 757 mmHg 92%
    20:00 +7°C° 0.2 mm 3 m/s 757 mmHg 91%
    21:00 +6°C° 0.2 mm 4 m/s 757 mmHg 90%
    22:00 +6°C° 0.1 mm 4 m/s 757 mmHg 90%
    23:00 +6°C° 0.1 mm 5 m/s 757 mmHg 89%

    18 Novembre, Lundi

    Heure Température Précipitation Vent Pression Humidité
    00:00 +5°C° 0.1 mm 6 m/s 757 mmHg 88%
    01:00 +5°C° 0.2 mm 6 m/s 757 mmHg 88%
    02:00 +5°C° 0.2 mm 6 m/s 757 mmHg 88%
    03:00 +5°C° 0.2 mm 6 m/s 757 mmHg 87%
    04:00 +5°C° 0.3 mm 6 m/s 757 mmHg 88%
    05:00 +5°C° 0.3 mm 6 m/s 757 mmHg 89%
    06:00 +5°C° 0.3 mm 6 m/s 757 mmHg 89%
    07:00 +5°C° 0.2 mm 6 m/s 757 mmHg 89%
    08:00 +5°C° 0.2 mm 6 m/s 757 mmHg 88%
    09:00 +5°C° 0.2 mm 6 m/s 758 mmHg 88%
    10:00 +5°C° 0.1 mm 6 m/s 758 mmHg 86%
    11:00 +7°C° 0.1 mm 6 m/s 758 mmHg 84%
    12:00 +7°C° 0.1 mm 6 m/s 758 mmHg 82%
    13:00 +7°C° 0 mm 5 m/s 758 mmHg 81%
    14:00 +6°C° 0 mm 5 m/s 758 mmHg 81%
    15:00 +6°C° 0 mm 4 m/s 758 mmHg 80%
    16:00 +5°C° 0 mm 4 m/s 758 mmHg 81%
    17:00 +5°C° 0 mm 3 m/s 758 mmHg 81%
    18:00 +4°C° 0 mm 3 m/s 758 mmHg 82%
    19:00 +4°C° 0 mm 3 m/s 758 mmHg 83%
    20:00 +3°C° 0 mm 3 m/s 758 mmHg 84%
    21:00 +2°C° 0 mm 3 m/s 758 mmHg 85%
    22:00 +2°C° 0 mm 3 m/s 758 mmHg 86%
    23:00 +1°C° 0 mm 3 m/s 758 mmHg 87%

    19 Novembre, Mardi

    Heure Température Précipitation Vent Pression Humidité
    00:00 +1°C° 0 mm 3 m/s 758 mmHg 87%
    01:00 +1°C° 0 mm 3 m/s 757 mmHg 88%
    02:00 0°C° 0 mm 4 m/s 757 mmHg 88%
    03:00 0°C° 0 mm 4 m/s 756 mmHg 88%
    04:00 +1°C° 0 mm 5 m/s 756 mmHg 88%
    05:00 +1°C° 0 mm 5 m/s 755 mmHg 88%
    06:00 +1°C° 0 mm 6 m/s 754 mmHg 89%
    07:00 +2°C° 0.2 mm 7 m/s 754 mmHg 88%
    08:00 +2°C° 0.2 mm 8 m/s 753 mmHg 88%
    09:00 +3°C° 0.2 mm 9 m/s 753 mmHg 88%
    10:00 +5°C° 0.4 mm 9 m/s 752 mmHg 88%
    11:00 +5°C° 0.4 mm 9 m/s 752 mmHg 88%
    12:00 +6°C° 0.4 mm 9 m/s 751 mmHg 89%
    13:00 +6°C° 0.6 mm 9 m/s 751 mmHg 89%
    14:00 +6°C° 0.6 mm 8 m/s 750 mmHg 90%
    15:00 +6°C° 0.6 mm 7 m/s 750 mmHg 91%
    16:00 +7°C° 0.1 mm 6 m/s 750 mmHg 92%
    17:00 +7°C° 0.1 mm 5 m/s 750 mmHg 93%
    18:00 +6°C° 0.1 mm 4 m/s 750 mmHg 94%
    19:00 +6°C° 0 mm 4 m/s 749 mmHg 95%
    20:00 +6°C° 0 mm 4 m/s 749 mmHg 95%
    21:00 +5°C° 0 mm 4 m/s 749 mmHg 96%
    22:00 +5°C° 0 mm 4 m/s 749 mmHg 95%
    23:00 +6°C° 0 mm 5 m/s 748 mmHg 95%
    Voir plus